Lille, France

4:37 AM CEST on October 17, 2017 (GMT +0200)
Lesquin

Weather History for LFQQ - February, 2013

Change the Weather History Date:

Saturday, February 9, 2013

  Actual Average Record
Temperature  
Mean Temperature 30 °F -  
Max Temperature 37 °F 46 °F 55 °F (1997)
Min Temperature 24 °F 35 °F 17 °F (2012)
Degree Days  
Heating Degree Days 34    
Moisture  
Dew Point 29 °F    
Average Humidity 91    
Maximum Humidity 100    
Minimum Humidity 75    
Precipitation  
Precipitation 0.00 in - - ()
Sea Level Pressure  
Sea Level Pressure 30.09 in    
Wind  
Wind Speed 3 mph ()    
Max Wind Speed 9 mph    
Max Gust Speed -    
Visibility 2.1 miles    
Events Fog    
Averages and records for this station are not official NWS values.
T = Trace of Precipitation, MM = Missing Value Source: Averaged Metar Reports

Daily Weather History Graph

Daily Weather History Graph

Search for Another Location

Airport or City:

Trip Planner

Search our weather history database for the weather conditions in past years. The results will help you decide how hot, cold, wet, or windy it might be!

Date:

Astronomy

Feb. 09, 2013 Rise Set
Actual Time 8:09 AM CET 5:54 PM CET
Civil Twilight 7:35 AM CET 6:28 PM CET
Nautical Twilight 6:56 AM CET 7:07 PM CET
Astronomical Twilight 6:19 AM CET 7:45 PM CET
Moon 7:11 AM CET (2/9) 5:21 PM CET (2/9)
Length of Visible Light 10h 53m
Length of Day
9h 44m
Waning Crescent, 1% of the Moon is Illuminated
Feb 9
Waning Crescent
Feb 10
New
Feb 17
First Quarter
Feb 25
Full
Mar 4
Last Quarter

Hourly Weather History & Observations

Time (CET) Temp. Windchill Dew Point Humidity Pressure Visibility Wind Dir Wind Speed Gust Speed Precip Events Conditions
12:00 AM 33.8 °F 30.8 °F 32.0 °F 93% 30.09 in 5.0 mi NW 3.5 mph - N/A   Mostly Cloudy
1:00 AM 33 °F - 32 °F 94% 30.12 in 5 mi WNW 3.5 mph - -   Overcast
1:00 AM 33.8 °F 30.8 °F 32.0 °F 93% 30.09 in 5.0 mi NW 3.5 mph - N/A   Overcast
1:30 AM 32.0 °F 28.7 °F 32.0 °F 100% 30.09 in 5.0 mi NW 3.5 mph - N/A   Unknown
2:00 AM 32.0 °F - 32.0 °F 100% 30.09 in 4.3 mi North 2.3 mph - N/A   Unknown
2:30 AM 32.0 °F - 30.2 °F 93% 30.09 in 3.1 mi Variable 2.3 mph - N/A   Mist
3:00 AM 32.0 °F - 30.2 °F 93% 30.09 in - Calm Calm - N/A   Mist
3:30 AM 32.0 °F - 30.2 °F 93% 30.09 in - Calm Calm - N/A   Overcast
4:00 AM 32.0 °F - 30.2 °F 93% 30.09 in 2.5 mi North 1.2 mph - N/A   Mostly Cloudy
5:00 AM 30.2 °F - 28.4 °F 93% 30.09 in 0.2 mi East 2.3 mph - N/A Fog Patches of Fog
5:30 AM 28.4 °F - 28.4 °F 100% 30.12 in 0.5 mi NE 2.3 mph - N/A Fog Patches of Fog
6:00 AM 28.4 °F - 26.6 °F 93% 30.09 in 0.2 mi NNE 1.2 mph - N/A Fog Patches of Fog
6:30 AM 28.4 °F - 28.4 °F 100% 30.12 in 0.2 mi North 2.3 mph - N/A Fog Fog
7:00 AM 28 °F - 27 °F 93% 30.14 in 0 mi West 3.5 mph - - Fog Heavy Fog
7:00 AM 28.4 °F 24.6 °F 26.6 °F 93% 30.12 in 0.1 mi West 3.5 mph - N/A Fog Fog
8:00 AM 24.8 °F - 24.8 °F 100% 30.12 in 0.1 mi Calm Calm - N/A Fog Fog
8:30 AM 24.8 °F - 24.8 °F 100% 30.12 in 0.1 mi WNW 1.2 mph - N/A Fog Fog
9:00 AM 24.8 °F - 24.8 °F 100% 30.12 in 0.1 mi Calm Calm - N/A Fog Fog
9:30 AM 26.6 °F - 26.6 °F 100% 30.12 in 0.1 mi WNW 2.3 mph - N/A Fog Fog
10:00 AM 28.4 °F - 26.6 °F 93% 30.12 in 0.1 mi WNW 2.3 mph - N/A Fog Fog
10:30 AM 28.4 °F 23.3 °F 28.4 °F 100% 30.12 in 0.1 mi West 4.6 mph - N/A Fog Fog
11:00 AM 28.4 °F 24.6 °F 28.4 °F 100% 30.12 in 0.1 mi WSW 3.5 mph - N/A Fog Fog
11:30 AM 30.2 °F 26.7 °F 28.4 °F 93% 30.15 in 0.1 mi West 3.5 mph - N/A Fog Fog
12:00 PM 30.2 °F 25.4 °F 30.2 °F 100% 30.15 in 0.1 mi WSW 4.6 mph - N/A Fog Fog
12:30 PM 30.2 °F 24.3 °F 30.2 °F 100% 30.12 in 0.4 mi WSW 5.8 mph - N/A Fog Fog
1:00 PM 31 °F - 31 °F 100% 30.16 in 1 mi WSW 4.6 mph - - Fog Light Fog
1:00 PM 32.0 °F 27.5 °F 32.0 °F 100% 30.12 in 0.9 mi WSW 4.6 mph - N/A   Mostly Cloudy
1:30 PM 33.8 °F 29.6 °F 33.8 °F 100% 30.12 in - SW 4.6 mph - N/A   Mostly Cloudy
2:00 PM 35.6 °F 32.8 °F 33.8 °F 93% 30.12 in 3.7 mi South 3.5 mph - N/A   Mostly Cloudy
2:30 PM 35.6 °F 30.7 °F 32.0 °F 87% 30.09 in 5.0 mi South 5.8 mph - N/A   Mostly Cloudy
3:00 PM 37.4 °F 32.8 °F 32.0 °F 81% 30.09 in 6.2 mi South 5.8 mph - N/A   Mostly Cloudy
3:30 PM 37.4 °F 32.1 °F 30.2 °F 75% 30.09 in 6.2 mi SSW 6.9 mph - N/A   Mostly Cloudy
4:00 PM 37.4 °F 31.4 °F 30.2 °F 75% 30.09 in - SSW 8.1 mph - N/A   Clear
4:30 PM 37.4 °F 31.4 °F 30.2 °F 75% 30.09 in - SSW 8.1 mph - N/A   Clear
5:30 PM 35.6 °F 29.9 °F 28.4 °F 75% 30.06 in - SSW 6.9 mph - N/A   Clear
6:00 PM 35.6 °F 28.6 °F 28.4 °F 75% 30.06 in - SSW 9.2 mph - N/A   Clear
6:30 PM 33.8 °F 27.7 °F 30.2 °F 87% 30.06 in - SSW 6.9 mph - N/A   Clear
7:00 PM 34 °F - 29 °F 77% 30.09 in 9 mi SSW 5.8 mph - -   Mostly Cloudy
7:00 PM 33.8 °F 28.6 °F 30.2 °F 87% 30.06 in - SSW 5.8 mph - N/A   Clear
7:30 PM 33.8 °F 28.6 °F 28.4 °F 81% 30.06 in - South 5.8 mph - N/A   Clear
8:00 PM 33.8 °F 28.6 °F 28.4 °F 81% 30.06 in - South 5.8 mph - N/A   Clear
8:30 PM 33.8 °F 30.8 °F 30.2 °F 87% 30.06 in - SSE 3.5 mph - N/A   Clear
9:00 PM 32.0 °F 27.5 °F 28.4 °F 87% 30.04 in - South 4.6 mph - N/A   Clear
9:30 PM 32.0 °F 28.7 °F 30.2 °F 93% 30.04 in - South 3.5 mph - N/A   Clear
10:00 PM 32.0 °F 27.5 °F 28.4 °F 87% 30.04 in - SSW 4.6 mph - N/A   Clear
10:30 PM 32.0 °F 26.4 °F 30.2 °F 93% 30.01 in - SSW 5.8 mph - N/A   Clear
11:00 PM 32.0 °F 25.6 °F 28.4 °F 87% 30.01 in - SSW 6.9 mph - N/A   Clear